Flag for U.S.A. Weather past 2 weeks in Sterling Heights, Michigan, U.S.A.

45 °F


Feels Like: 41 °F
Forecast: 42 / 63 °F
Wind: 7 mph from Northwest

Location: Selfridge Air National Guard Base

Current Time: Oct 10, 2015 at 5:04:22 AM

Latest Report: Oct 10, 2015 at 3:58 AM

Visibility: 10 mi

Pressure: 30.19 "Hg

Humidity: 86%

Dew point: 41 °F

Location of Sterling HeightsLocation

Historic Weather in Sterling Heights — Graph


Sterling Heights temperature yesterday

Maximum temperature yesterday: 63 °F (at 3:58 AM)
Minimum temperature yesterday: 46 °F (at 11:58 PM)
Average temperature yesterday: 58 °F

Past Weeks' High & Low Weather Summary

High78 °F (Sep 25, 3:55 PM)100% (Sep 29, 3:03 AM)30.42 "Hg (Sep 29, 3:03 AM)
Low43 °F (Oct 8, 7:55 AM)30% (Oct 6, 7:55 PM)29.81 "Hg (Oct 9, 3:04 AM)
Average59 °F78%30.17 "Hg
* Reported Sep 25 3:58 AM — Oct 10 3:58 AM, Sterling Heights, Weather by CustomWeather, © 2015

Note: Actual official high and low records may vary slightly from our data, if they occured in-between our weather recording intervals... More about our weather records


Sterling Heights weather history for previous 24 hours

Time TempWeatherWind HumidityBarometerVisibility
3:58 AM
Sat, Oct 10
45 °FClear.7 mph86%30.19 "Hg10 mi
12:58 AM45 °FClear.6 mph89%30.19 "Hg10 mi
11:58 PM
Fri, Oct 9
46 °FClear.5 mph87%30.19 "Hg10 mi
10:58 PM48 °FClear.8 mph83%30.17 "Hg10 mi
9:58 PM50 °FClear.5 mph79%30.16 "Hg10 mi
8:58 PM52 °FPassing clouds.8 mph77%30.15 "Hg10 mi
7:55 PM55 °FBroken clouds.8 mph71%30.14 "Hg12 mi
6:55 PM57 °FPartly sunny.8 mph64%30.11 "Hg12 mi
5:55 PM58 °FPartly sunny.12 mph64%30.09 "Hg12 mi
4:55 PM59 °FPartly sunny.16 mph65%30.06 "Hg12 mi
3:55 PM60 °FBroken clouds.14 mph69%30.03 "Hg12 mi
2:55 PM62 °FPartly sunny.9 mph69%30.02 "Hg12 mi
1:55 PM59 °FMore clouds than sun.15 mph70%30.02 "Hg12 mi
12:55 PM61 °FMostly cloudy.13 mph72%30.01 "Hg10 mi
11:55 AM58 °FMostly cloudy.14 mph79%29.99 "Hg10 mi
10:55 AM58 °FBroken clouds.12 mph81%29.98 "Hg10 mi
9:55 AM57 °FMostly cloudy.13 mph85%29.96 "Hg7 mi
8:55 AM58 °FCloudy.16 mph87%29.93 "Hg7 mi
7:55 AM60 °FOvercast.6 mph89%29.89 "Hg7 mi
6:58 AM61 °FOvercast.7 mph89%29.86 "Hg10 mi
5:58 AM63 °FOvercast.7 mph89%29.83 "Hg10 mi
Weather by CustomWeather, © 2015

See weather overviewHow to use our weather pages